GSAT0201 (GALILEO 5)

Last updated on Nov. 15, 2019, 4:20 a.m. UTC

1 40128U 14050A   19317.18160406 -.00000084  00000-0  00000-0 0  9995
2 40128  50.5795  10.0436 1664170  92.3776 286.7275  1.85519567 33674
UTC
Height (km)
Latitude
Longitude
Inclination
Orbital Period
UTC large
Height (km)
Speed (km/s)
/
Latitude / Longitude
Inclination (degrees)
Orbital Period (minutes)
Azimuth
Elevation
Range (km)
Doppler Factor
iOS Compass Heading
iOS Angle

Next 30 passes for location: Hong Kong

Rise time Rise Azimuth (degrees) Set time Set Azimuth (degrees) Duration Max altitude (degrees)

No matching passes for this satellites